• In Spain
  • List of Countries
  • For 7 days
  • Water Temperature
  • Satellite Maps
  • Weather Map
  • Weather Widgets
  • user-avatar
    Login

    Hourly Weather Volchya Dubrava

    Today, 21 April, Saturday

    Time Temperature Precipitation Wind Pressure Humidity
    00:00 +8°C° 0 mm 2 mps 738 mmHg 83%
    01:00 +7°C° 0 mm 2 mps 738 mmHg 85%
    02:00 +7°C° 0 mm 3 mps 738 mmHg 86%
    03:00 +6°C° 0 mm 2 mps 737 mmHg 87%
    04:00 +5°C° 0 mm 3 mps 736 mmHg 86%
    05:00 +5°C° 0 mm 3 mps 736 mmHg 85%
    06:00 +5°C° 0 mm 4 mps 735 mmHg 84%
    07:00 +7°C° 0 mm 5 mps 735 mmHg 79%
    08:00 +8°C° 0 mm 6 mps 734 mmHg 74%
    09:00 +10°C° 0 mm 7 mps 733 mmHg 68%
    10:00 +11°C° 0 mm 8 mps 732 mmHg 64%
    11:00 +13°C° 0 mm 8 mps 731 mmHg 59%
    12:00 +16°C° 0 mm 9 mps 730 mmHg 54%
    13:00 +17°C° 0 mm 9 mps 729 mmHg 52%
    14:00 +17°C° 0 mm 10 mps 729 mmHg 50%
    15:00 +18°C° 0 mm 10 mps 728 mmHg 48%
    16:00 +18°C° 0.1 mm 10 mps 727 mmHg 51%
    17:00 +17°C° 0.1 mm 9 mps 725 mmHg 53%
    18:00 +17°C° 0.1 mm 9 mps 724 mmHg 56%
    19:00 +16°C° 0.8 mm 9 mps 724 mmHg 59%
    20:00 +15°C° 0.8 mm 9 mps 724 mmHg 63%
    21:00 +13°C° 0.8 mm 9 mps 723 mmHg 66%
    22:00 +11°C° 0 mm 8 mps 723 mmHg 66%
    23:00 +9°C° 0 mm 8 mps 724 mmHg 67%

    Tomorrow, 22 April, Sunday

    Time Temperature Precipitation Wind Pressure Humidity
    00:00 +6°C° 0 mm 8 mps 724 mmHg 67%
    01:00 +6°C° 0 mm 9 mps 724 mmHg 68%
    02:00 +5°C° 0 mm 9 mps 725 mmHg 69%
    03:00 +3°C° 0 mm 9 mps 725 mmHg 69%
    04:00 +3°C° 0 mm 9 mps 725 mmHg 69%
    05:00 +3°C° 0 mm 9 mps 725 mmHg 69%
    06:00 +3°C° 0 mm 9 mps 726 mmHg 69%
    07:00 +3°C° 0 mm 9 mps 726 mmHg 67%
    08:00 +3°C° 0 mm 10 mps 727 mmHg 65%
    09:00 +3°C° 0 mm 10 mps 727 mmHg 62%
    10:00 +5°C° 0.1 mm 9 mps 728 mmHg 61%
    11:00 +5°C° 0.1 mm 9 mps 728 mmHg 60%
    12:00 +5°C° 0.1 mm 8 mps 728 mmHg 58%
    13:00 +5°C° 0 mm 8 mps 729 mmHg 57%
    14:00 +5°C° 0 mm 8 mps 729 mmHg 56%
    15:00 +6°C° 0 mm 8 mps 730 mmHg 55%
    16:00 +5°C° 0 mm 7 mps 730 mmHg 56%
    17:00 +5°C° 0 mm 7 mps 730 mmHg 57%
    18:00 +5°C° 0 mm 6 mps 731 mmHg 57%
    19:00 +5°C° 0 mm 5 mps 731 mmHg 60%
    20:00 +3°C° 0 mm 5 mps 732 mmHg 62%
    21:00 +3°C° 0 mm 4 mps 732 mmHg 64%
    22:00 +3°C° 0 mm 4 mps 733 mmHg 65%
    23:00 +1°C° 0 mm 4 mps 733 mmHg 65%

    Day after tomorrow, 23 April, Monday

    Time Temperature Precipitation Wind Pressure Humidity
    00:00 +1°C° 0 mm 4 mps 733 mmHg 66%
    01:00 0°C° 0 mm 4 mps 734 mmHg 67%
    02:00 -1°C° 0 mm 4 mps 734 mmHg 68%
    03:00 -1°C° 0 mm 4 mps 734 mmHg 69%
    04:00 -2°C° 0 mm 4 mps 735 mmHg 70%
    05:00 -2°C° 0 mm 4 mps 735 mmHg 70%
    06:00 -4°C° 0 mm 5 mps 736 mmHg 71%
    07:00 -2°C° 0 mm 5 mps 736 mmHg 64%
    08:00 -1°C° 0 mm 5 mps 737 mmHg 56%
    09:00 -1°C° 0 mm 6 mps 737 mmHg 49%
    10:00 +1°C° 0 mm 6 mps 737 mmHg 47%
    11:00 +2°C° 0 mm 6 mps 737 mmHg 45%
    12:00 +3°C° 0 mm 6 mps 738 mmHg 43%
    13:00 +3°C° 0 mm 6 mps 738 mmHg 42%
    14:00 +4°C° 0 mm 6 mps 738 mmHg 41%
    15:00 +4°C° 0 mm 6 mps 738 mmHg 41%
    16:00 +5°C° 0 mm 5 mps 738 mmHg 41%
    17:00 +5°C° 0 mm 5 mps 738 mmHg 42%
    18:00 +5°C° 0 mm 5 mps 738 mmHg 43%
    19:00 +4°C° 0 mm 4 mps 738 mmHg 48%
    20:00 +3°C° 0 mm 3 mps 739 mmHg 52%
    21:00 +3°C° 0 mm 2 mps 739 mmHg 57%
    22:00 +2°C° 0 mm 2 mps 740 mmHg 59%
    23:00 +2°C° 0 mm 2 mps 740 mmHg 61%

    24 April, Tuesday

    Time Temperature Precipitation Wind Pressure Humidity
    00:00 +2°C° 0 mm 1 mps 740 mmHg 62%
    01:00 +2°C° 0 mm 1 mps 740 mmHg 63%
    02:00 +2°C° 0 mm 1 mps 740 mmHg 64%
    03:00 +1°C° 0 mm 1 mps 740 mmHg 65%
    04:00 +1°C° 0 mm 1 mps 740 mmHg 65%
    05:00 +1°C° 0 mm 1 mps 741 mmHg 64%
    06:00 +1°C° 0 mm 1 mps 741 mmHg 64%
    07:00 +3°C° 0 mm 1 mps 741 mmHg 58%
    08:00 +4°C° 0 mm 2 mps 741 mmHg 52%
    09:00 +5°C° 0 mm 2 mps 741 mmHg 47%
    10:00 +6°C° 0 mm 2 mps 741 mmHg 43%
    11:00 +7°C° 0 mm 2 mps 740 mmHg 40%
    12:00 +8°C° 0 mm 2 mps 740 mmHg 37%
    13:00 +9°C° 0 mm 3 mps 740 mmHg 36%
    14:00 +10°C° 0 mm 3 mps 740 mmHg 35%
    15:00 +10°C° 0 mm 3 mps 739 mmHg 35%
    16:00 +10°C° 0 mm 3 mps 739 mmHg 37%
    17:00 +10°C° 0 mm 3 mps 739 mmHg 40%
    18:00 +10°C° 0 mm 3 mps 738 mmHg 43%
    19:00 +9°C° 0 mm 2 mps 738 mmHg 46%
    20:00 +8°C° 0 mm 2 mps 738 mmHg 50%
    21:00 +7°C° 0 mm 2 mps 738 mmHg 53%
    22:00 +7°C° 0 mm 2 mps 738 mmHg 57%
    23:00 +6°C° 0 mm 2 mps 738 mmHg 60%

    25 April, Wednesday

    Time Temperature Precipitation Wind Pressure Humidity
    00:00 +6°C° 0 mm 2 mps 738 mmHg 64%
    01:00 +6°C° 0 mm 2 mps 738 mmHg 69%
    02:00 +6°C° 0 mm 2 mps 737 mmHg 73%
    03:00 +5°C° 0 mm 2 mps 737 mmHg 78%
    04:00 +5°C° 0.1 mm 3 mps 737 mmHg 79%
    05:00 +5°C° 0.1 mm 3 mps 737 mmHg 79%
    06:00 +5°C° 0.1 mm 4 mps 736 mmHg 80%
    07:00 +5°C° 0.1 mm 4 mps 736 mmHg 79%
    08:00 +6°C° 0.1 mm 5 mps 736 mmHg 78%
    09:00 +6°C° 0.1 mm 5 mps 736 mmHg 77%
    10:00 +7°C° 0.1 mm 6 mps 736 mmHg 76%
    11:00 +8°C° 0.1 mm 6 mps 735 mmHg 74%
    12:00 +9°C° 0.1 mm 6 mps 735 mmHg 73%
    13:00 +9°C° 0.7 mm 6 mps 735 mmHg 76%
    14:00 +9°C° 0.7 mm 6 mps 734 mmHg 79%
    15:00 +9°C° 0.7 mm 6 mps 734 mmHg 82%
    16:00 +9°C° 1.2 mm 6 mps 733 mmHg 83%
    17:00 +9°C° 1.2 mm 6 mps 733 mmHg 84%
    18:00 +9°C° 1.2 mm 6 mps 733 mmHg 84%
    19:00 +8°C° 0.1 mm 5 mps 733 mmHg 83%
    20:00 +7°C° 0.1 mm 5 mps 733 mmHg 83%
    21:00 +6°C° 0.1 mm 4 mps 733 mmHg 82%
    22:00 +6°C° 0 mm 4 mps 734 mmHg 82%
    23:00 +5°C° 0 mm 5 mps 734 mmHg 82%

    26 April, Thursday

    Time Temperature Precipitation Wind Pressure Humidity
    00:00 +5°C° 0 mm 5 mps 734 mmHg 82%
    01:00 +5°C° 0 mm 5 mps 735 mmHg 83%
    02:00 +4°C° 0 mm 4 mps 735 mmHg 85%
    03:00 +4°C° 0 mm 4 mps 735 mmHg 86%
    04:00 +3°C° 0 mm 4 mps 735 mmHg 87%
    05:00 +3°C° 0 mm 4 mps 736 mmHg 88%
    06:00 +3°C° 0 mm 4 mps 736 mmHg 89%
    07:00 +5°C° 0 mm 4 mps 736 mmHg 82%
    08:00 +6°C° 0 mm 5 mps 736 mmHg 75%
    09:00 +8°C° 0 mm 5 mps 737 mmHg 69%
    10:00 +9°C° 0 mm 5 mps 737 mmHg 63%
    11:00 +12°C° 0 mm 5 mps 737 mmHg 58%
    12:00 +13°C° 0 mm 5 mps 737 mmHg 52%
    13:00 +13°C° 0 mm 4 mps 736 mmHg 54%
    14:00 +13°C° 0 mm 3 mps 736 mmHg 55%
    15:00 +13°C° 0 mm 2 mps 736 mmHg 56%
    16:00 +13°C° 0.6 mm 2 mps 735 mmHg 63%
    17:00 +11°C° 0.6 mm 3 mps 735 mmHg 70%
    18:00 +11°C° 0.6 mm 3 mps 734 mmHg 76%
    19:00 +11°C° 0.5 mm 3 mps 734 mmHg 81%
    20:00 +10°C° 0.5 mm 3 mps 734 mmHg 85%
    21:00 +10°C° 0.5 mm 3 mps 733 mmHg 90%
    22:00 +10°C° 0.1 mm 3 mps 733 mmHg 91%
    23:00 +10°C° 0.1 mm 3 mps 734 mmHg 92%
    Show more